CZ-6A DEB, 56651

Orbit data source: Space-Track

CZ-6A DEB, 56651 is space debris in SSO originally from a launch on Fri, 11 Nov 2022 UTC launched from the Taiyaun Space Center, China (TSC). Debris objects in space refer to the collection of defunct objects orbiting the Earth. Examples of debris include non-operational satellites, rocket bodies, and fragments generated from explosions, collisions, or faulty payload assembly.

Loading next visibility...
Identifier
56651, 2022-151AGB
Orbit
SSO
Country
Flag of CNCN / PRC
Related business
Manufacturer
SAST
Mission
Spacecraft
Bus & Motor
Unknown
Mass
Unknown
Launch date (UTC)
2022-11-11 (3 years ago)
Launch vehicle
Unknown
Launch site
Taiyaun Space Center, China (TSC)
Object type
Payload
Rocket body
Debris
Shape & HBR
Unknown shape, 0.1 m
Radar Cross Section
Small (<0.1 m²)

Expand to show TLE details & history
Last TLE update: 3 days ago

TLE from 3 days ago
0 CZ-6A DEB
1 56651U 22151AGB 26127.43518103  .00009843  00000-0  14756-2 0  9996
2 56651  98.6070 190.7206 0062951  41.6008 318.9963 14.73483644169797
Epoch: 2026-05-07T10:26Z
TLE epoch observation values (Epoch: 2026-05-07T10:26:39.640Z)
Latitude
-0.00003°
Longitude
168.77408°
Altitude
619.685 km
Speed
7.567 km/s
True Right ascension
12h 42m 52s
True Declination
0° 00' 00"
Sunlit
Object was in full shadow at epoch
Visualization orbit readout
Latitude
Unknown
Longitude
Unknown
Altitude
Unknown
Speed
Unknown
Apparent Right ascension
Unknown
Apparent Declination
Unknown
Sunlit
N/A
Visualization observer readout
Local Sidereal Time
19:53:19
Azimuth
Unknown
Elevation
Unknown
Doppler factor
Unknown
Orbital elements
Apogee altitude
691.275 km
Perigee altitude
602.827 km
Semi-major axis
7,025.188 km
Eccentricity
0.0063
Inclination
98.607°
RAAN
190.7206°
Arg. of periapsis
41.6008°
True anomaly
318.52019°
Mean anomaly
318.9963°
Eccentric anomaly
318.75853°
Mean motion
3.68601 °/min
Orbital period
97.67 mins
BSTAR
0.0014756
Loading maneuver chart data...
Computing Atmospheric mass density...
Loading historical data...
Loading historical data...
Loading historical data...
Loading historical data...
Loading historical data...
Loading historical data...
Loading historical data...

Documentation

Showing up to 5 results
|